Location: Kennington
(51.1500°N, 0.8833°E)
Time: 11:21:20
(UTC+00:00)

Cosmos 2369 - Pass Details

Date: 21 September 2020
Orbit: 839 x 856 km, 71.0° (Epoch: 30 October)

Event Time Altitude Azimuth Distance (km) Brightness Sun altitude
Exits shadow 03:11:16 53° 225° (SW) 1,048 3.8 -23.1°
Maximum altitude 03:12:40 80° 301° (WNW) 876 3.6 -22.9°
Drops below altitude 10° 03:18:26 10° 29° (NNE) 2,499 7.0 -22.1°
Sets 03:20:55 0° 30° (NNE) 3,438 7.9 -21.8°
